Hourly Data Report for September 17, 2017

All times are specified in Local Standard Time (LST). Add 1 hour to adjust for Daylight Saving Time where and when it is observed.

SUMMERSIDE
PRINCE EDWARD ISLAND

46°26'28.000" N
63°50'17.000" W
12.20 m
8300596
71702
WSD

Download Data

Hourly Data (September 2017)
Hourly Data Report for September 17, 2017
Temp Definition
°C
Dew Point Temp Definition
°C
Rel Hum Definition
%
Wind Dir Definition
10's deg

Wind Spd Definition
km/h
Visibility Definition
km
Stn Press Definition
kPa
Hmdx Definition


Wind Chill Definition


Weather Definition


TIME
00:00 14.3 11.3 82 6 18   102.08     LegendNANA
01:00 14.2 11.6 84 8 11   102.05     LegendNANA
02:00 14.3 11.5 83 7 12   102.08     LegendNANA
03:00 14.1 11.7 86 10 6   102.02     LegendNANA
04:00 13.9 11.7 87 9 6   102.04     LegendNANA
05:00 13.9 11.3 84 13 8   102.05     LegendNANA
06:00 13.2 11.5 90 8 7   102.11     LegendNANA
07:00 14.2 11.7 85 12 7   102.13     LegendNANA
08:00 14.8 11.5 81 12 7   102.16     LegendNANA
09:00 15.4 11.8 79 12 9   102.17     LegendNANA
10:00 15.3 11.9 80 11 10   102.15     LegendNANA
11:00 15.5 11.7 78 10 9   102.17     LegendNANA
12:00 16.1 12.2 78 9 9   102.12     LegendNANA
13:00 16.8 12.6 76 9 7   102.06     LegendNANA
14:00 16.8 12.0 73 12 5   102.04     LegendNANA
15:00 16.9 13.0 78 17 10   101.99     LegendNANA
16:00 17.3 13.3 77 13 7   102.01     LegendNANA
17:00 17.2 13.3 78 15 5   102.03     LegendNANA
18:00 16.0 12.8 81 10 11   101.99     LegendNANA
19:00 15.7 12.9 83 8 14   102.07     LegendNANA
20:00 15.5 13.0 85 10 7   102.10     LegendNANA
21:00 15.5 13.4 88 12 6   102.09     LegendNANA
22:00 15.4 13.8 90 10 6   102.09     LegendNANA
23:00 15.0 13.3 90 10 10   102.12     LegendNANA

Notes on Data Quality.

Legend

  • E = Estimated
  • M = Missing
  • NA = Not Available
  • ‡ = Partner data that is not subject to review by the National Climate Archives
Date modified: